Powrót do katalogu

STARLINK-11191

AktywnyŁącznośćVLEO
NORAD 60410·PAYLOAD·🇺🇸 United States

Wystrzelony Aug 10, 2024 z Cape Canaveral Space Force Station

Loading…

Następne Przeloty (najbliższe 24 godziny)

TLE

ŚwieżeSource: CelesTrak SupGP

Epoka: Sep 15, 2026, 02:35 UTC

1 60410C 24141N   26258.10812500 -.00082125  00000+0 -67641-3 0  2587
2 60410  53.1575 232.3934 0001219  94.1824 299.3762 15.69753022    15

Śledź STARLINK-11191 w czasie rzeczywistym z AllMySat

Download on the App Store